SCP
0 0 0 0 0 0 0 0 0 0 0 0 0 0 0 0 0 0 0 0 0 0 0 0 0 0 0 0 0 0 0 0 0 0 -0 0 0 0 0 0 0 0 0 0
0 0 0 0 0 0 0 0 0 0 0 0 0 0 0 0 0 0 0 0 0 0 0 0 0 0 0 0 0 0 0 0 0 0 0 0 0 0 0 0 0 0 0 -0
0 0 0 0 0 0 0 0 0 0 0 0 0 0 0 0 0 0 0 0 0 0 0 0 0 0 0 0 0 0 0 0 0 0 0 0 0 0 0 0 0 0 0 -0
0 0 0 0 0 0 0 0 0 0 0 0 0 0 0 0 0 0 0 0 0 0 0 0 0 0 0 0 0 0 0 0 0 0 0 0 0 0 0 0 0 0 -0 -0
0 0 0 0 0 0 0 0 0 0 0 0 0 0 0 0 0 0 0 0 0 0 0 0 0 0 0 0 0 0 0 0 0 0 0 0 0 0 0 0 0 0 -0 -0
0 0 0 0 0 0 0 0 0 0 0 0 0 0 0 0 0 0 0 0 0 0 0 0 0 0 0 0 0 0 0 0 0 0 0 0 0 0 0 -0 -0 -0 0 0
0 0 0 0 0 0 0 0 0 0 0 0 0 0 0 0 0 0 0 0 0 0 0 0 0 0 0 0 0 0 0 0 0 0 0 0 0 0 0 -0 -0 -0 -0 -0
0 0 0 0 0 0 0 0 0 0 0 0 0 0 0 0 0 0 0 0 0 0 0 0 0 0 0 0 0 0 0 0 0 0 0 0 0 0 0 0 -0 -0 -0 -0
0 0 0 0 0 0 0 0 0 0 0 0 0 0 0 0 0 0 0 0 0 0 0 0 0 0 0 0 0 0 0 0 0 0 0 0 0 0 0 0 -0 -0 -0 -0
0 0 0 0 0 0 0 0 0 0 0 0 0 0 0 0 0 0 0 0 0 0 0 0 0 0 0 0 0 0 0 0 0 0 0 0 0 0 0 0 0 -0 -0 -0
0 0 0 0 0 0 0 0 0 0 0 0 0 0 0 0 0 0 0 0 0 0 0 0 0 0 0 0 0 0 0 0 0 0 0 0 0 0 0 0 0 0 -0 -0
0 0 0 0 0 0 0 0 0 0 0 0 0 0 0 0 0 0 0 0 0 0 0 0 0 0 0 0 0 0 0 0 0 0 0 0 0 0 0 0 0 0 0 0
0 0 0 0 0 0 0 0 0 0 0 0 0 0 0 0 0 0 0 0 0 0 0 0 0 0 0 0 0 0 0 0 0 0 0 0 0 0 0 0 0 0 0 0
-0 0 0 0 0 0 0 0 0 0 0 0 0 0 0 0 0 0 0 0 0 0 0 0 0 0 0 0 0 0 0 0 0 0 0 0 0 0 0 0 0 0 0 0
-0 -0 -0 0 0 0 0 0 0 0 0 0 0 0 0 0 0 0 0 0 0 0 0 0 0 0 0 0 0 0 0 0 0 0 0 0 0 0 0 0 0 0 0 0
0 0 0 0 0 0 0 0 0 0 0 0 0 0 0 0 0 0 0 0 0 0 0 0 0 0 0 0 0 0 0 0 0 0 0 0 0 0 0 0 0 0 0 0
0 0 0 0 0 0 0 0 0 0 0 0 0 0 0 0 0 0 0 0 0 0 0 0 0 0 0 0 0 0 0 0 0 0 0 0 0 0 0 0 0 0 0 0
0 0 0 0 0 0 0 0 0 0 0 0 0 0 0 0 0 0 0 0 0 0 0 0 0 0 0 0 0 0 0 0 0 0 0 0 0 0 0 0 0 0 0 0
0 0 0 0 0 0 0 0 0 0 0 0 0 0 0 0 0 0 0 0 0 0 0 0 0 0 0 0 0 0 0 0 0 0 0 0 0 0 0 0 0 0 0 0
0 0 0 0 0 0 0 0 0 0 0 0 0 0 0 0 0 0 0 0 0 0 0 0 0 0 0 0 0 0 0 0 0 0 0 0 0 0 0 0 0 0 0 0
0 0 0 0 0 0 0 0 0 0 0 0 0 0 0 0 0 0 0 0 0 0 0 0 0 0 0 0 0 0 0 0 0 0 0 0 0 0 0 0 0 0 0 0
0 0 0 0 0 0 0 0 0 0 0 0 0 0 0 0 0 0 0 0 0 0 0 0 0 0 0 0 0 0 0 0 0 0 0 0 0 0 0 0 0 0 0 0
0 0 0 0 0 0 0 0 0 0 0 0 0 0 0 0 0 0 0 0 0 0 0 0 0 0 0 0 0 0 0 0 0 0 0 0 0 0 0 0 0 0 0 0
0 0 0 0 0 0 0 0 0 0 0 0 0 0 0 0 0 0 0 0 0 0 0 0 0 0 0 0 0 0 0 0 0 0 0 0 0 0 0 0 0 0 0 0
0 0 0 0 0 0 0 0 0 0 0 0 0 0 0 0 0 0 0 0 0 0 0 0 0 0 0 0 0 0 0 0 0 0 0 0 0 0 0 0 0 0 0 0
0 0 0 0 0 0 0 0 0 0 0 0 0 0 0 0 0 0 0 0 0 0 0 0 0 0 0 0 0 0 0 0 0 0 0 0 0 0 0 0 0 0 0 0
0 0 0 0 0 0 0 0 0 0 0 0 0 0 0 0 0 0 0 0 0 0 0 0 0 0 0 0 0 0 0 0 0 0 0 0 0 0 0 0 0 0 0 0
Wind_Speed_500mb
24 26 28 32 33 32 35 37 37 46 44 49 45 44 46 25 7 34 30 26 22 18 14 4 1 5 7 10 12 14 18 23 30 39 45 43 48 51 52 53 58 62 68 66
17 27 33 39 28 36 43 43 46 47 51 42 52 26 21 15 18 26 25 26 23 20 13 8 4 3 5 8 11 14 18 22 25 27 29 36 39 42 47 55 58 62 68 70
26 21 20 27 16 32 35 35 36 37 42 34 36 29 21 10 19 23 27 28 26 23 17 11 5 4 5 6 10 13 18 21 25 27 30 33 34 37 41 47 51 59 66 69
21 21 30 20 12 17 25 31 35 33 24 29 20 15 11 6 18 23 27 28 29 28 19 12 7 5 6 6 9 11 14 19 23 25 28 30 32 35 37 40 47 51 59 60
20 21 27 25 33 28 14 31 33 16 18 21 14 8 3 9 18 22 26 26 23 23 20 15 10 7 7 7 9 11 16 18 20 23 25 28 31 32 33 35 37 45 51 64
21 24 20 11 3 8 16 29 14 7 11 13 14 18 6 15 17 24 26 24 23 21 18 13 11 9 7 4 6 13 18 21 22 22 27 27 27 29 29 29 34 35 40 51
25 24 23 20 8 6 14 5 6 13 20 32 22 7 8 22 24 26 25 24 23 21 18 15 13 11 8 5 8 13 12 14 21 24 27 29 27 26 30 29 31 36 37 45
23 31 40 7 8 13 15 18 23 29 36 30 18 11 20 25 29 28 27 26 23 22 19 16 14 12 10 8 9 9 11 15 16 18 18 19 23 23 25 27 30 31 31 33
15 9 3 9 17 32 41 38 34 33 30 17 14 19 31 37 34 29 27 25 22 20 20 17 14 13 12 9 8 9 11 14 15 17 19 19 21 23 24 25 26 28 29 29
17 13 25 26 34 41 37 26 28 25 24 23 22 26 31 32 32 30 27 25 23 23 20 18 16 15 13 11 9 9 9 11 12 14 15 18 18 21 23 26 25 26 28 29
28 31 35 39 28 22 24 22 21 20 19 21 25 32 32 34 34 31 28 26 25 23 22 20 18 15 13 11 10 8 8 9 10 10 12 13 17 22 21 29 31 25 25 24
24 35 36 31 31 30 24 24 22 13 17 19 26 31 33 34 33 32 30 28 26 25 24 22 19 16 13 11 10 7 7 6 5 8 10 11 10 18 31 34 37 36 38 30
51 57 49 35 28 28 26 19 16 16 22 24 26 29 34 34 33 31 30 29 27 26 25 23 21 18 14 13 13 12 8 5 7 9 9 10 12 12 13 25 32 35 39 43
52 47 45 48 36 24 23 19 20 19 22 25 27 30 34 33 33 33 31 29 28 27 26 24 24 21 16 13 10 7 2 2 7 9 9 9 11 12 13 15 14 16 31 43
62 61 62 54 26 24 24 25 24 24 25 27 30 34 34 35 36 33 31 30 30 28 31 30 23 20 17 13 8 3 4 5 8 9 10 11 10 11 13 14 15 17 20 25
42 40 34 30 28 28 28 29 27 27 29 31 33 34 34 33 34 33 31 30 30 28 26 26 24 21 17 13 6 3 8 11 10 7 7 8 9 11 13 15 17 19 21 27
45 37 31 36 36 34 34 31 28 29 31 34 37 38 38 40 44 43 42 39 37 30 26 23 22 20 16 11 6 4 3 9 12 5 7 8 8 10 12 13 15 17 18 34
49 38 31 35 34 34 32 32 30 32 36 39 47 50 51 48 42 45 41 38 33 28 25 24 22 19 15 10 6 7 6 7 9 8 7 10 12 10 11 12 14 16 18 21
45 35 27 28 31 32 34 35 35 36 42 47 45 47 41 40 39 39 37 33 31 29 27 24 22 19 15 10 7 8 9 9 9 11 10 15 10 11 12 13 14 16 18 20
27 28 28 26 29 33 41 42 42 43 41 40 42 44 43 42 38 36 34 31 24 20 22 24 21 17 13 10 9 11 13 13 11 11 16 9 12 10 12 17 17 16 18 19
31 34 37 36 34 35 35 36 38 41 40 41 40 41 39 37 37 36 35 27 31 30 25 23 21 17 14 11 10 14 15 14 13 12 13 13 12 12 13 15 17 18 19 20
30 31 29 29 34 37 35 35 36 36 36 37 37 35 36 36 39 36 29 22 25 32 26 22 19 19 14 12 14 16 16 16 17 16 17 16 15 15 14 16 17 20 20 22
25 27 30 33 36 37 37 36 32 30 31 30 31 32 33 34 37 34 30 27 27 30 25 28 20 16 15 16 17 19 19 19 18 17 16 17 16 18 18 18 24 23 24 26
26 29 31 32 32 34 35 33 31 29 26 26 28 30 33 31 29 23 24 30 30 33 34 20 18 15 17 18 19 19 18 17 16 16 17 19 17 20 20 23 25 26 27 30
28 31 32 32 30 27 28 29 28 28 28 28 30 33 27 24 25 31 34 34 34 33 27 21 17 16 18 19 20 19 18 18 19 18 20 19 21 21 22 24 27 28 29 28
29 27 27 22 19 22 25 26 23 27 27 28 30 31 29 31 33 34 33 29 30 28 23 20 17 17 19 21 21 19 18 22 20 20 21 21 21 22 23 24 26 28 29 30
25 24 23 19 18 19 21 22 24 26 27 27 30 33 36 35 32 28 28 29 27 27 22 17 17 19 21 21 21 20 19 22 20 21 21 21 21 22 23 24 26 28 29 30
Wind_Direction_500mb
275 285 284 277 270 268 261 263 259 280 280 291 297 295 297 318 195 182 195 197 196 203 216 214 83 32 28 14 15 15 22 21 18 11 9 17 21 27 31 36 42 41 39 42
285 275 269 268 263 264 260 266 270 278 281 278 286 334 286 309 177 191 200 195 194 191 184 163 143 84 41 22 23 29 30 30 27 26 24 20 22 23 23 28 40 44 43 41
269 271 280 260 236 242 263 264 266 271 284 313 308 300 305 225 197 191 196 193 186 180 169 164 150 104 74 38 33 43 40 36 33 30 29 29 28 28 29 29 30 38 41 42
271 287 273 277 218 246 256 266 270 281 335 314 333 333 326 222 190 188 185 184 188 181 165 155 143 126 95 71 42 38 50 40 35 35 34 32 33 32 30 29 30 34 37 38
252 254 267 264 249 251 308 296 293 318 318 352 350 296 212 163 176 182 179 180 181 187 189 172 154 131 119 105 66 43 35 40 41 38 36 34 33 34 32 28 31 29 35 38
233 249 266 246 193 115 313 283 44 343 351 341 326 286 74 166 171 162 166 168 167 164 160 164 159 145 127 87 73 62 33 29 35 42 38 37 36 31 33 34 31 29 29 30
236 256 263 278 68 21 253 344 317 327 317 315 300 5 142 164 166 164 164 164 163 161 166 170 164 155 131 98 51 66 54 43 27 39 28 24 29 34 31 34 37 41 28 22
234 251 262 257 113 235 333 300 288 300 314 313 272 189 173 170 167 166 166 167 164 165 167 164 161 158 153 124 96 79 56 43 43 37 36 31 30 31 31 32 31 38 35 26
233 245 61 210 254 277 288 293 301 310 307 265 205 193 179 177 169 172 172 170 169 168 166 162 158 160 159 135 117 87 63 52 44 34 32 30 30 32 32 32 34 31 31 29
274 277 284 299 297 296 296 291 291 293 288 223 221 189 180 181 176 175 176 175 171 171 168 165 165 146 147 139 116 93 70 57 47 32 38 33 40 31 30 35 33 29 27 19
254 255 273 279 283 311 306 279 268 298 257 239 201 194 188 182 181 180 179 177 174 174 173 168 159 151 144 135 118 107 83 61 41 36 30 22 360 15 27 17 23 27 24 19
256 255 257 279 301 294 283 264 261 234 227 207 199 193 185 183 183 182 181 177 175 175 171 167 159 148 139 138 139 124 91 56 55 27 23 18 15 348 347 359 3 6 359 0
272 269 266 282 286 277 257 243 221 210 209 200 195 190 184 180 182 180 180 177 178 176 171 166 162 153 151 148 147 141 120 75 23 24 12 1 2 358 354 345 350 351 348 341
261 262 259 275 273 269 236 215 205 192 200 196 191 182 179 177 177 178 179 177 175 172 169 169 174 187 182 178 170 169 157 39 27 3 356 353 351 348 346 343 342 333 333 330
261 261 267 270 261 236 217 197 189 190 189 185 181 177 177 172 176 176 173 172 168 168 175 185 192 187 187 186 192 196 72 330 355 345 337 353 349 343 336 336 332 328 332 328
261 262 257 234 233 221 210 202 197 192 187 182 177 177 174 175 172 170 170 169 170 174 179 190 192 193 193 198 214 303 332 322 336 342 333 342 339 337 331 330 332 329 333 317
265 252 228 224 219 212 206 204 198 192 184 181 184 174 169 169 175 176 182 183 189 196 196 195 196 194 198 204 188 227 287 300 330 343 323 323 325 323 324 325 327 329 329 316
252 252 236 233 217 198 193 193 189 184 181 177 183 180 185 191 182 187 188 193 191 192 194 200 200 201 206 212 197 238 277 289 300 304 312 311 315 323 324 325 323 325 325 326
237 224 223 208 196 184 183 182 182 180 179 189 188 191 194 190 194 191 193 192 193 195 202 200 196 198 211 227 243 264 280 285 290 294 299 319 329 323 325 324 324 327 328 329
193 192 190 178 173 173 179 187 188 190 190 185 183 185 183 191 194 194 195 192 194 195 216 200 190 187 219 242 257 272 287 291 285 293 300 296 306 314 318 324 330 327 327 327
165 166 171 177 179 178 188 189 186 182 179 183 186 188 191 194 194 193 185 173 202 202 207 197 189 208 225 255 262 282 292 294 290 290 295 301 309 310 315 317 321 325 324 323
172 175 178 173 169 164 171 175 176 178 180 180 188 193 195 193 189 186 182 191 210 191 194 182 190 212 243 263 277 293 295 293 288 290 291 298 302 309 314 316 318 318 320 319
163 165 161 161 163 164 166 169 172 179 182 189 193 193 191 194 190 178 179 187 200 182 179 201 217 226 251 269 289 295 295 291 290 293 296 299 304 304 309 312 310 316 316 316
164 163 164 165 165 165 165 167 173 176 183 186 188 187 188 176 171 177 186 191 188 179 207 213 219 239 262 283 292 295 293 290 293 294 293 304 300 307 309 311 314 316 317 320
163 159 157 156 157 158 169 172 176 181 180 183 182 183 174 170 172 179 196 195 199 202 213 214 228 250 272 286 292 292 288 283 286 291 294 295 302 306 309 311 315 317 319 321
155 154 155 150 156 167 174 175 172 174 171 174 174 173 167 172 189 199 198 194 193 207 211 217 237 259 275 285 289 290 285 289 294 292 295 296 301 306 310 315 318 320 321 321
158 162 161 161 163 170 175 170 174 173 179 176 170 176 186 190 193 189 189 191 198 203 212 231 252 269 285 291 290 291 287 289 291 293 297 301 305 309 315 319 321 321 321 323
Wind_Speed_850mb
24 26 28 32 33 32 35 37 37 46 44 49 45 44 46 25 7 34 30 26 22 18 14 4 1 5 7 10 12 14 18 23 30 39 45 43 48 51 52 53 58 62 68 66
17 27 33 39 28 36 43 43 46 47 51 42 52 26 21 15 18 26 25 26 23 20 13 8 4 3 5 8 11 14 18 22 25 27 29 36 39 42 47 55 58 62 68 70
26 21 20 27 16 32 35 35 36 37 42 34 36 29 21 10 19 23 27 28 26 23 17 11 5 4 5 6 10 13 18 21 25 27 30 33 34 37 41 47 51 59 66 69
21 21 30 20 12 17 25 31 35 33 24 29 20 15 11 6 18 23 27 28 29 28 19 12 7 5 6 6 9 11 14 19 23 25 28 30 32 35 37 40 47 51 59 60
20 21 27 25 33 28 14 31 33 16 18 21 14 8 3 9 18 22 26 26 23 23 20 15 10 7 7 7 9 11 16 18 20 23 25 28 31 32 33 35 37 45 51 64
21 24 20 11 3 8 16 29 14 7 11 13 14 18 6 15 17 24 26 24 23 21 18 13 11 9 7 4 6 13 18 21 22 22 27 27 27 29 29 29 34 35 40 51
25 24 23 20 8 6 14 5 6 13 20 32 22 7 8 22 24 26 25 24 23 21 18 15 13 11 8 5 8 13 12 14 21 24 27 29 27 26 30 29 31 36 37 45
23 31 40 7 8 13 15 18 23 29 36 30 18 11 20 25 29 28 27 26 23 22 19 16 14 12 10 8 9 9 11 15 16 18 18 19 23 23 25 27 30 31 31 33
15 9 3 9 17 32 41 38 34 33 30 17 14 19 31 37 34 29 27 25 22 20 20 17 14 13 12 9 8 9 11 14 15 17 19 19 21 23 24 25 26 28 29 29
17 13 25 26 34 41 37 26 28 25 24 23 22 26 31 32 32 30 27 25 23 23 20 18 16 15 13 11 9 9 9 11 12 14 15 18 18 21 23 26 25 26 28 29
28 31 35 39 28 22 24 22 21 20 19 21 25 32 32 34 34 31 28 26 25 23 22 20 18 15 13 11 10 8 8 9 10 10 12 13 17 22 21 29 31 25 25 24
24 35 36 31 31 30 24 24 22 13 17 19 26 31 33 34 33 32 30 28 26 25 24 22 19 16 13 11 10 7 7 6 5 8 10 11 10 18 31 34 37 36 38 30
51 57 49 35 28 28 26 19 16 16 22 24 26 29 34 34 33 31 30 29 27 26 25 23 21 18 14 13 13 12 8 5 7 9 9 10 12 12 13 25 32 35 39 43
52 47 45 48 36 24 23 19 20 19 22 25 27 30 34 33 33 33 31 29 28 27 26 24 24 21 16 13 10 7 2 2 7 9 9 9 11 12 13 15 14 16 31 43
62 61 62 54 26 24 24 25 24 24 25 27 30 34 34 35 36 33 31 30 30 28 31 30 23 20 17 13 8 3 4 5 8 9 10 11 10 11 13 14 15 17 20 25
42 40 34 30 28 28 28 29 27 27 29 31 33 34 34 33 34 33 31 30 30 28 26 26 24 21 17 13 6 3 8 11 10 7 7 8 9 11 13 15 17 19 21 27
45 37 31 36 36 34 34 31 28 29 31 34 37 38 38 40 44 43 42 39 37 30 26 23 22 20 16 11 6 4 3 9 12 5 7 8 8 10 12 13 15 17 18 34
49 38 31 35 34 34 32 32 30 32 36 39 47 50 51 48 42 45 41 38 33 28 25 24 22 19 15 10 6 7 6 7 9 8 7 10 12 10 11 12 14 16 18 21
45 35 27 28 31 32 34 35 35 36 42 47 45 47 41 40 39 39 37 33 31 29 27 24 22 19 15 10 7 8 9 9 9 11 10 15 10 11 12 13 14 16 18 20
27 28 28 26 29 33 41 42 42 43 41 40 42 44 43 42 38 36 34 31 24 20 22 24 21 17 13 10 9 11 13 13 11 11 16 9 12 10 12 17 17 16 18 19
31 34 37 36 34 35 35 36 38 41 40 41 40 41 39 37 37 36 35 27 31 30 25 23 21 17 14 11 10 14 15 14 13 12 13 13 12 12 13 15 17 18 19 20
30 31 29 29 34 37 35 35 36 36 36 37 37 35 36 36 39 36 29 22 25 32 26 22 19 19 14 12 14 16 16 16 17 16 17 16 15 15 14 16 17 20 20 22
25 27 30 33 36 37 37 36 32 30 31 30 31 32 33 34 37 34 30 27 27 30 25 28 20 16 15 16 17 19 19 19 18 17 16 17 16 18 18 18 24 23 24 26
26 29 31 32 32 34 35 33 31 29 26 26 28 30 33 31 29 23 24 30 30 33 34 20 18 15 17 18 19 19 18 17 16 16 17 19 17 20 20 23 25 26 27 30
28 31 32 32 30 27 28 29 28 28 28 28 30 33 27 24 25 31 34 34 34 33 27 21 17 16 18 19 20 19 18 18 19 18 20 19 21 21 22 24 27 28 29 28
29 27 27 22 19 22 25 26 23 27 27 28 30 31 29 31 33 34 33 29 30 28 23 20 17 17 19 21 21 19 18 22 20 20 21 21 21 22 23 24 26 28 29 30
25 24 23 19 18 19 21 22 24 26 27 27 30 33 36 35 32 28 28 29 27 27 22 17 17 19 21 21 21 20 19 22 20 21 21 21 21 22 23 24 26 28 29 30
Wind_Direction_850mb
275 285 284 277 270 268 261 263 259 280 280 291 297 295 297 318 195 182 195 197 196 203 216 214 83 32 28 14 15 15 22 21 18 11 9 17 21 27 31 36 42 41 39 42
285 275 269 268 263 264 260 266 270 278 281 278 286 334 286 309 177 191 200 195 194 191 184 163 143 84 41 22 23 29 30 30 27 26 24 20 22 23 23 28 40 44 43 41
269 271 280 260 236 242 263 264 266 271 284 313 308 300 305 225 197 191 196 193 186 180 169 164 150 104 74 38 33 43 40 36 33 30 29 29 28 28 29 29 30 38 41 42
271 287 273 277 218 246 256 266 270 281 335 314 333 333 326 222 190 188 185 184 188 181 165 155 143 126 95 71 42 38 50 40 35 35 34 32 33 32 30 29 30 34 37 38
252 254 267 264 249 251 308 296 293 318 318 352 350 296 212 163 176 182 179 180 181 187 189 172 154 131 119 105 66 43 35 40 41 38 36 34 33 34 32 28 31 29 35 38
233 249 266 246 193 115 313 283 44 343 351 341 326 286 74 166 171 162 166 168 167 164 160 164 159 145 127 87 73 62 33 29 35 42 38 37 36 31 33 34 31 29 29 30
236 256 263 278 68 21 253 344 317 327 317 315 300 5 142 164 166 164 164 164 163 161 166 170 164 155 131 98 51 66 54 43 27 39 28 24 29 34 31 34 37 41 28 22
234 251 262 257 113 235 333 300 288 300 314 313 272 189 173 170 167 166 166 167 164 165 167 164 161 158 153 124 96 79 56 43 43 37 36 31 30 31 31 32 31 38 35 26
233 245 61 210 254 277 288 293 301 310 307 265 205 193 179 177 169 172 172 170 169 168 166 162 158 160 159 135 117 87 63 52 44 34 32 30 30 32 32 32 34 31 31 29
274 277 284 299 297 296 296 291 291 293 288 223 221 189 180 181 176 175 176 175 171 171 168 165 165 146 147 139 116 93 70 57 47 32 38 33 40 31 30 35 33 29 27 19
254 255 273 279 283 311 306 279 268 298 257 239 201 194 188 182 181 180 179 177 174 174 173 168 159 151 144 135 118 107 83 61 41 36 30 22 360 15 27 17 23 27 24 19
256 255 257 279 301 294 283 264 261 234 227 207 199 193 185 183 183 182 181 177 175 175 171 167 159 148 139 138 139 124 91 56 55 27 23 18 15 348 347 359 3 6 359 0
272 269 266 282 286 277 257 243 221 210 209 200 195 190 184 180 182 180 180 177 178 176 171 166 162 153 151 148 147 141 120 75 23 24 12 1 2 358 354 345 350 351 348 341
261 262 259 275 273 269 236 215 205 192 200 196 191 182 179 177 177 178 179 177 175 172 169 169 174 187 182 178 170 169 157 39 27 3 356 353 351 348 346 343 342 333 333 330
261 261 267 270 261 236 217 197 189 190 189 185 181 177 177 172 176 176 173 172 168 168 175 185 192 187 187 186 192 196 72 330 355 345 337 353 349 343 336 336 332 328 332 328
261 262 257 234 233 221 210 202 197 192 187 182 177 177 174 175 172 170 170 169 170 174 179 190 192 193 193 198 214 303 332 322 336 342 333 342 339 337 331 330 332 329 333 317
265 252 228 224 219 212 206 204 198 192 184 181 184 174 169 169 175 176 182 183 189 196 196 195 196 194 198 204 188 227 287 300 330 343 323 323 325 323 324 325 327 329 329 316
252 252 236 233 217 198 193 193 189 184 181 177 183 180 185 191 182 187 188 193 191 192 194 200 200 201 206 212 197 238 277 289 300 304 312 311 315 323 324 325 323 325 325 326
237 224 223 208 196 184 183 182 182 180 179 189 188 191 194 190 194 191 193 192 193 195 202 200 196 198 211 227 243 264 280 285 290 294 299 319 329 323 325 324 324 327 328 329
193 192 190 178 173 173 179 187 188 190 190 185 183 185 183 191 194 194 195 192 194 195 216 200 190 187 219 242 257 272 287 291 285 293 300 296 306 314 318 324 330 327 327 327
165 166 171 177 179 178 188 189 186 182 179 183 186 188 191 194 194 193 185 173 202 202 207 197 189 208 225 255 262 282 292 294 290 290 295 301 309 310 315 317 321 325 324 323
172 175 178 173 169 164 171 175 176 178 180 180 188 193 195 193 189 186 182 191 210 191 194 182 190 212 243 263 277 293 295 293 288 290 291 298 302 309 314 316 318 318 320 319
163 165 161 161 163 164 166 169 172 179 182 189 193 193 191 194 190 178 179 187 200 182 179 201 217 226 251 269 289 295 295 291 290 293 296 299 304 304 309 312 310 316 316 316
164 163 164 165 165 165 165 167 173 176 183 186 188 187 188 176 171 177 186 191 188 179 207 213 219 239 262 283 292 295 293 290 293 294 293 304 300 307 309 311 314 316 317 320
163 159 157 156 157 158 169 172 176 181 180 183 182 183 174 170 172 179 196 195 199 202 213 214 228 250 272 286 292 292 288 283 286 291 294 295 302 306 309 311 315 317 319 321
155 154 155 150 156 167 174 175 172 174 171 174 174 173 167 172 189 199 198 194 193 207 211 217 237 259 275 285 289 290 285 289 294 292 295 296 301 306 310 315 318 320 321 321
158 162 161 161 163 170 175 170 174 173 179 176 170 176 186 190 193 189 189 191 198 203 212 231 252 269 285 291 290 291 287 289 291 293 297 301 305 309 315 319 321 321 321 323